Hourly Data Report for October 23, 2015

All times are specified in Local Standard Time (LST). Add 1 hour to adjust for Daylight Saving Time where and when it is observed.

IQALUIT CLIMATE
NUNAVUT

63°44'50.000" N
68°32'40.000" W
33.50 m
2402592
71321
XFB

Download Data

Hourly Data (October 2015)
Hourly Data Report for October 23, 2015
Temp Definition
°C
Dew Point Temp Definition
°C
Rel Hum Definition
%
Wind Dir Definition
10's deg

Wind Spd Definition
km/h
Visibility Definition
km
Stn Press Definition
kPa
Hmdx Definition


Wind Chill Definition


Weather Definition


TIME
00:00 -6.5 -10.0 76 31 22   101.80   -14 LegendNANA
01:00 -6.9 -10.0 78 31 21   101.82   -14 LegendNANA
02:00 -7.3 -10.3 79 32 16   101.83   -14 LegendNANA
03:00 -7.7 -10.4 81 32 17   101.80   -14 LegendNANA
04:00 -8.4 -11.5 78 31 23   101.82   -16 LegendNANA
05:00 -8.3 -11.7 76 31 19   101.85   -16 LegendNANA
06:00 -8.2 -11.5 77 30 13   101.83   -14 LegendNANA
07:00 -7.8 -11.1 77 34 10   101.79   -13 LegendNANA
08:00 -7.3 -10.7 77 36 8   101.78   -11 LegendNANA
09:00 -6.9 -10.3 77 21 3   101.75   -8 LegendNANA
10:00 -6.7 -10.2 76 13 6   101.69   -10 LegendNANA
11:00 -6.0 -9.7 75 17 9   101.64   -10 LegendNANA
12:00 -6.4 -9.4 79 11 15   101.58   -12 LegendNANA
13:00 -6.4 -9.6 78 12 17   101.50   -13 LegendNANA
14:00 -6.0 -9.4 77 12 19   101.43   -13 LegendNANA
15:00 -6.0 -9.1 79 12 19   101.33   -13 LegendNANA
16:00 -5.3 -7.7 84 14 18   101.29   -12 LegendNANA
17:00 -5.8 -8.2 83 14 22   101.23   -13 LegendNANA
18:00 -6.2 -8.7 83 13 20   101.15   -13 LegendNANA
19:00 -5.8 -8.2 83 13 23   101.08   -13 LegendNANA
20:00 -6.0 -8.2 85 12 21   101.00   -13 LegendNANA
21:00 -5.3 -7.3 86 13 22   100.95   -12 LegendNANA
22:00 -4.9 -6.5 89 13 21   100.84   -12 LegendNANA
23:00 -4.3 -5.7 90 13 25   100.74   -11 LegendNANA

Notes on Data Quality.

Legend

  • E = Estimated
  • M = Missing
  • NA = Not Available
  • ‡ = Partner data that is not subject to review by the National Climate Archives
Date modified: